| time (UTC) | temp F | wind direction | speed knots | gust knots | rain 1hr in | rain 24hr in | rain mn in | humidity % | barometer mb |
| 20260505034630 | 62 | 32 | 0.0 | 2.6 | 0.00 | 0.00 | 0.00 | 70 | 1011.5 |
| 20260505033101 | 62 | 41 | 0.9 | 4.3 | 0.00 | 0.00 | 0.00 | 69 | 1011.5 |
| 20260505031625 | 63 | 13 | 0.9 | 4.3 | 0.00 | 0.00 | 0.00 | 69 | 1011.5 |
| 20260505030038 | 63 | 12 | 2.6 | 7.0 | 0.00 | 0.00 | 0.00 | 68 | 1011.7 |
| 20260505024631 | 64 | 49 | 1.7 | 9.6 | 0.00 | 0.00 | 0.00 | 66 | 1011.6 |
| 20260505023100 | 65 | 3 | 2.6 | 13.0 | 0.00 | 0.00 | 0.00 | 64 | 1011.6 |
| 20260505021510 | 65 | 32 | 5.2 | 12.2 | 0.00 | 0.00 | 0.00 | 62 | 1011.7 |
| 20260505020056 | 65 | 25 | 2.6 | 7.8 | 0.00 | 0.00 | 0.00 | 60 | 1011.5 |
| 20260505014518 | 65 | 15 | 0.9 | 6.1 | 0.00 | 0.00 | 0.00 | 61 | 1011.2 |
| 20260505013108 | 65 | 17 | 3.5 | 7.0 | 0.00 | 0.00 | 0.00 | 62 | 1011.3 |
| 20260505011526 | 65 | 358 | 1.7 | 8.7 | 0.00 | 0.00 | 0.00 | 62 | 1011.2 |
| 20260505010109 | 65 | 20 | 2.6 | 8.7 | 0.00 | 0.00 | 0.00 | 61 | 1011.2 |
| 20260505004538 | 65 | 319 | 0.9 | 6.1 | 0.00 | 0.00 | 0.00 | 60 | 1011.0 |
| 20260505003115 | 66 | 29 | 0.9 | 6.1 | 0.00 | 0.00 | 0.00 | 58 | 1011.1 |
| 20260505001554 | 67 | 29 | 2.6 | 11.3 | 0.00 | 0.00 | 0.00 | 55 | 1011.0 |
| 20260505000014 | 67 | 24 | 5.2 | 10.4 | 0.00 | 0.00 | 0.00 | 53 | 1011.0 |
| 20260504234631 | 67 | 8 | 1.7 | 11.3 | 0.00 | 0.00 | 0.00 | 51 | 1011.0 |
| 20260504233011 | 68 | 29 | 2.6 | 7.0 | 0.00 | 0.00 | 0.00 | 50 | 1011.1 |
| 20260504231614 | 68 | 36 | 3.5 | 8.7 | 0.00 | 0.00 | 0.00 | 49 | 1011.1 |
| 20260504230025 | 69 | 49 | 4.3 | 12.2 | 0.00 | 0.00 | 0.00 | 46 | 1011.1 |
| 20260504224621 | 70 | 319 | 4.3 | 13.0 | 0.00 | 0.00 | 0.00 | 44 | 1011.0 |
| 20260504221634 | 72 | 356 | 2.6 | 10.4 | 0.00 | 0.00 | 0.00 | 43 | 1011.0 |
| 20260504220052 | 72 | 15 | 3.5 | 12.2 | 0.00 | 0.00 | 0.00 | 41 | 1011.0 |
| 20260504214632 | 73 | 339 | 5.2 | 12.2 | 0.00 | 0.00 | 0.00 | 40 | 1011.0 |
| 20260504213052 | 73 | 308 | 6.1 | 12.2 | 0.00 | 0.00 | 0.00 | 41 | 1011.0 |
| 20260504211501 | 73 | 13 | 2.6 | 10.4 | 0.00 | 0.00 | 0.00 | 42 | 1010.8 |
| 20260504210053 | 72 | 15 | 4.3 | 17.4 | 0.00 | 0.00 | 0.00 | 41 | 1011.0 |
| 20260504204640 | 72 | 10 | 6.1 | 15.6 | 0.00 | 0.00 | 0.00 | 40 | 1011.1 |
| 20260504203039 | 72 | 18 | 7.0 | 13.9 | 0.00 | 0.00 | 0.00 | 38 | 1011.1 |
| 20260504201632 | 72 | 344 | 6.1 | 13.0 | 0.00 | 0.00 | 0.00 | 39 | 1011.3 |
| 20260504200043 | 72 | 301 | 4.3 | 15.6 | 0.00 | 0.00 | 0.00 | 39 | 1011.5 |
| 20260504194504 | 71 | 29 | 4.3 | 10.4 | 0.00 | 0.00 | 0.00 | 40 | 1011.9 |
| 20260504193053 | 71 | 10 | 7.0 | 13.9 | 0.00 | 0.00 | 0.00 | 40 | 1012.1 |
| 20260504191509 | 70 | 320 | 4.3 | 11.3 | 0.00 | 0.00 | 0.00 | 40 | 1012.2 |
| 20260504190101 | 70 | 298 | 4.3 | 10.4 | 0.00 | 0.00 | 0.00 | 41 | 1012.4 |
| 20260504184511 | 69 | 26 | 5.2 | 13.9 | 0.00 | 0.00 | 0.00 | 39 | 1012.7 |
| 20260504183102 | 70 | 20 | 4.3 | 12.2 | 0.00 | 0.00 | 0.00 | 39 | 1012.9 |
| 20260504181523 | 69 | 287 | 4.3 | 9.6 | 0.00 | 0.00 | 0.00 | 41 | 1013.1 |
| 20260504180115 | 69 | 25 | 3.5 | 11.3 | 0.00 | 0.00 | 0.00 | 43 | 1013.4 |
| 20260504174519 | 68 | 17 | 5.2 | 12.2 | 0.00 | 0.00 | 0.00 | 44 | 1013.6 |
| 20260504173111 | 67 | 25 | 4.3 | 7.8 | 0.00 | 0.00 | 0.00 | 46 | 1013.9 |
| 20260504171536 | 66 | 332 | 3.5 | 7.8 | 0.00 | 0.00 | 0.00 | 48 | 1014.1 |
| 20260504170105 | 66 | 285 | 3.5 | 7.0 | 0.00 | 0.00 | 0.00 | 45 | 1014.1 |
| 20260504081614 | 51 | 69 | 0.0 | 1.7 | 0.00 | 0.00 | 0.00 | 61 | 1016.6 |
| 20260504070108 | 52 | 65 | 1.7 | 3.5 | 0.00 | 0.00 | 0.00 | 58 | 1016.7 |
| 20260504044502 | 50 | 63 | 0.0 | 0.9 | 0.00 | 0.00 | 0.00 | 57 | 1016.9 |
| 20260504043056 | 51 | 64 | 0.0 | 1.7 | 0.00 | 0.00 | 0.00 | 58 | 1016.8 |
| 20260504041510 | 50 | 63 | 0.9 | 2.6 | 0.00 | 0.00 | 0.00 | 62 | 1016.8 |
| 20260504040056 | 49 | 75 | 0.0 | 1.7 | 0.00 | 0.00 | 0.00 | 67 | 1016.7 |